COSMOS 2251 DEB, 34563

Orbit data source: Space-Track

COSMOS 2251 DEB, 34563 is space debris in LEO originally from a launch on Wed, 16 Jun 1993 UTC launched from the Plesetsk Missile And Space Complex (PKMTR). The debris from Iridium 33, an American commercial communications satellite, has been tracked extensively since its accidental collision with the defunct Russian satellite Cosmos 2251 in 2009. This event, occurring at high speed in low Earth orbit (LEO), generated thousands of pieces of space debris, significantly increasing the risk of further collisions. The Iridium 33 debris cloud has impacted space traffic management and orbital debris mitigation strategies, making it a subject of ongoing study in space situational awareness.

Loading next visibility...
Identifier
34563, 1993-036UZ
Orbit
LEO
Country
Flag of CISCIS
Related business
Manufacturer
Unknown
Mission
Spacecraft
Bus & Motor
Unknown
Mass
Unknown
Launch date (UTC)
1993-06-16 (33 years ago)
Launch vehicle
Unknown
Launch site
Plesetsk Missile And Space Complex (PKMTR)
Object type
Payload
Rocket body
Debris
Shape & HBR
Unknown shape, 0.1 m
Radar Cross Section
Medium (>0.1 m² and <1 m²)

Expand to show TLE details & history
Last TLE update: 16 hours ago

TLE from 16 hours ago
0 COSMOS 2251 DEB
1 34563U 93036UZ  26264.64634009  .00000721  00000-0  20410-3 0  9994
2 34563  74.0388  35.1067 0012721  59.3032 314.1377 14.47312879922892
Epoch: 2026-09-21T15:30Z
TLE epoch observation values (Epoch: 2026-09-21T15:30:43.783Z)
Latitude
12.7809°
Longitude
165.60111°
Altitude
730.011 km
Speed
7.495 km/s
True Right ascension
02h 35m 13s
True Declination
12° 42' 24"
Sunlit
Object was in full shadow at epoch
Visualization orbit readout
Latitude
Unknown
Longitude
Unknown
Altitude
Unknown
Speed
Unknown
Apparent Right ascension
Unknown
Apparent Declination
Unknown
Sunlit
N/A
Visualization observer readout
Local Sidereal Time
00:56:15
Azimuth
Unknown
Elevation
Unknown
Doppler factor
Unknown
Orbital elements
Apogee altitude
741.095 km
Perigee altitude
723.005 km
Semi-major axis
7,110.187 km
Eccentricity
0.00127
Inclination
74.0388°
RAAN
35.1067°
Arg. of periapsis
59.3032°
True anomaly
314.03297°
Mean anomaly
314.1377°
Eccentric anomaly
314.08535°
Mean motion
3.62011 °/min
Orbital period
99.44 mins
BSTAR
0.0002041

Documentation

Showing up to 5 results
|